STARLINK-2537, 48301

Orbit data source: Space-Track

STARLINK-2537, 48301 is a payload satellite owned by SpaceX/Seattle (US) in LEO that was launched on Thu, 29 Apr 2021 UTC via an FALCON 9 launch vehicle from the Air Force Eastern Test Range (AFETR). Payload-class satellites include a variety of spacecraft equipped with specific instruments for various scientific and technological missions. These include communications satellites like Starlink; space stations such as the ISS; scientific satellites like the Hubble; Earth observation satellites from companies like Planet Labs, Umbra, and HawkEye 360; GPS; miniature CubeSats for education and research; and military/defense satellites.

Loading next visibility...
Identifier
48301, 2021-036AB
Orbit
LEO
Country
Flag of USUS
Related business
Manufacturer
SpaceX/Seattle
Mission
Operational Commercial Communications
Bus & Motor
STARLINK, Unknown motor
Mass
260 kg wet, ~248 kg dry
Launch date (UTC)
2021-04-29 (4 years ago)
Launch vehicle
FALCON 9
Launch site
Air Force Eastern Test Range (AFETR)
Object type
Payload
Rocket body
Debris
Shape & HBR
Box + 1 Pan, 4.4 m
Radar Cross Section
13.562 m², Large (>1 m²)

Expand to show TLE details & history
Last TLE update: 22 hours ago

TLE from 22 hours ago
0 STARLINK-2537
1 48301U 21036AB  25259.96406325 -.00001000  00000-0 -48279-4 0  9993
2 48301  53.0533 151.5054 0001371  84.9409 275.1736 15.06385717241982
Epoch: 2025-09-16T23:08Z
TLE epoch observation values (Epoch: 2025-09-16T23:08:15.064Z)
Latitude
-0.00007°
Longitude
168.29576°
Altitude
548.049 km
Speed
7.589 km/s
True Right ascension
10h 06m 01s
True Declination
0° 00' 00"
Sunlit
Object was in daylight at epoch
Visualization orbit readout
Latitude
Unknown
Longitude
Unknown
Altitude
Unknown
Speed
Unknown
Apparent Right ascension
Unknown
Apparent Declination
Unknown
Sunlit
N/A
Visualization observer readout
Local Sidereal Time
13:59:31
Azimuth
Unknown
Elevation
Unknown
Doppler factor
Unknown
Orbital elements
Apogee altitude
548.476 km
Perigee altitude
546.577 km
Semi-major axis
6,925.663 km
Eccentricity
0.00014
Inclination
53.0533°
RAAN
151.5054°
Arg. of periapsis
84.9409°
True anomaly
275.15795°
Mean anomaly
275.1736°
Eccentric anomaly
275.16578°
Mean motion
3.76575 °/min
Orbital period
95.6 mins
BSTAR
-0.000048279
Loading maneuver chart data...
Computing Atmospheric mass density...
Loading historical data...
Loading historical data...
Loading historical data...
Loading historical data...
Loading historical data...
Loading historical data...
Loading historical data...

Documentation

Showing up to 5 results
|